Time,TemperatureF,DewpointF,PressureIn,WindDirection,WindDirectionDegrees,WindSpeedMPH,WindSpeedGustMPH,Humidity,HourlyPrecipIn,Conditions,Clouds,dailyrainin,SoftwareType,DateUTC
2013-10-01 00:02:00,69.6,66.6,29.88,ESE,112,0.0,-999.0,90,-99.99,,,0.00,Acu-Link.com,2013-10-01 04:02:00,
2013-10-01 00:17:00,69.3,66.5,29.88,East,90,0.0,-999.0,91,-99.99,,,0.00,Acu-Link.com,2013-10-01 04:17:00,
2013-10-01 00:32:00,69.1,66.3,29.87,NNW,337,0.0,-999.0,91,-99.99,,,0.00,Acu-Link.com,2013-10-01 04:32:00,
2013-10-01 00:47:00,69.1,66.7,29.88,SSE,157,0.0,-999.0,92,-99.99,,,0.00,Acu-Link.com,2013-10-01 04:47:00,
2013-10-01 01:02:00,68.7,66.3,29.87,SSE,157,0.0,-999.0,92,-99.99,,,0.00,Acu-Link.com,2013-10-01 05:02:00,
2013-10-01 01:18:00,68.7,66.3,29.87,East,90,0.0,-999.0,92,-99.99,,,0.00,Acu-Link.com,2013-10-01 05:18:00,
2013-10-01 01:33:00,68.7,66.3,29.87,East,90,0.0,-999.0,92,-99.99,,,0.00,Acu-Link.com,2013-10-01 05:33:00,
2013-10-01 01:48:00,68.5,66.1,29.87,ESE,112,0.0,-999.0,92,-99.99,,,0.00,Acu-Link.com,2013-10-01 05:48:00,
2013-10-01 02:04:00,68.7,66.3,29.87,SE,135,0.0,-999.0,92,-99.99,,,0.00,Acu-Link.com,2013-10-01 06:04:00,
2013-10-01 02:19:00,68.7,66.3,29.87,East,90,0.0,-999.0,92,-99.99,,,0.00,Acu-Link.com,2013-10-01 06:19:00,
2013-10-01 02:34:00,68.9,66.5,29.86,SSE,157,0.0,-999.0,92,-99.99,,,0.00,Acu-Link.com,2013-10-01 06:34:00,
2013-10-01 02:49:00,68.9,66.5,29.86,NNE,22,0.0,-999.0,92,-99.99,,,0.00,Acu-Link.com,2013-10-01 06:49:00,
2013-10-01 03:05:00,68.9,66.5,29.86,NNE,22,0.0,-999.0,92,-99.99,,,0.00,Acu-Link.com,2013-10-01 07:05:00,
2013-10-01 03:20:00,69.1,66.7,29.86,NNE,22,0.0,-999.0,92,-99.99,,,0.00,Acu-Link.com,2013-10-01 07:20:00,
2013-10-01 03:35:00,69.1,66.7,29.86,NNE,22,0.0,-999.0,92,-99.99,,,0.00,Acu-Link.com,2013-10-01 07:35:00,
2013-10-01 03:51:00,69.1,66.7,29.85,NNW,337,0.0,-999.0,92,-99.99,,,0.00,Acu-Link.com,2013-10-01 07:51:00,
2013-10-01 04:06:00,69.1,67.0,29.85,WNW,292,0.0,-999.0,93,-99.99,,,0.00,Acu-Link.com,2013-10-01 08:06:00,
2013-10-01 04:21:00,69.1,67.0,29.85,WNW,292,0.0,-999.0,93,-99.99,,,0.00,Acu-Link.com,2013-10-01 08:21:00,
2013-10-01 04:36:00,69.1,67.0,29.86,WNW,292,0.0,-999.0,93,-99.99,,,0.00,Acu-Link.com,2013-10-01 08:36:00,
2013-10-01 04:53:00,69.3,67.1,29.86,WNW,292,0.0,-999.0,93,-99.99,,,0.00,Acu-Link.com,2013-10-01 08:53:00,
2013-10-01 05:08:00,69.3,66.8,29.85,West,270,0.0,-999.0,92,-99.99,,,0.00,Acu-Link.com,2013-10-01 09:08:00,
2013-10-01 05:24:00,69.3,66.5,29.86,ESE,112,0.0,-999.0,91,-99.99,,,0.00,Acu-Link.com,2013-10-01 09:24:00,
2013-10-01 05:39:00,69.3,66.5,29.86,ESE,112,0.0,-999.0,91,-99.99,,,0.00,Acu-Link.com,2013-10-01 09:39:00,
2013-10-01 05:55:00,69.3,66.2,29.86,NW,315,0.0,-999.0,90,-99.99,,,0.00,Acu-Link.com,2013-10-01 09:55:00,
2013-10-01 06:10:00,69.3,66.2,29.86,WNW,292,0.0,-999.0,90,-99.99,,,0.00,Acu-Link.com,2013-10-01 10:10:00,
2013-10-01 06:25:00,69.3,66.2,29.87,West,270,0.0,-999.0,90,-99.99,,,0.00,Acu-Link.com,2013-10-01 10:25:00,
2013-10-01 06:41:00,69.3,66.2,29.87,SE,135,0.0,-999.0,90,-99.99,,,0.00,Acu-Link.com,2013-10-01 10:41:00,
2013-10-01 06:56:00,69.3,66.2,29.87,NNE,22,0.0,-999.0,90,-99.99,,,0.00,Acu-Link.com,2013-10-01 10:56:00,
2013-10-01 07:11:00,69.3,66.5,29.87,NNE,22,0.0,-999.0,91,-99.99,,,0.00,Acu-Link.com,2013-10-01 11:11:00,
2013-10-01 07:26:00,69.3,66.5,29.87,NNE,22,0.0,-999.0,91,-99.99,,,0.00,Acu-Link.com,2013-10-01 11:26:00,
2013-10-01 07:41:00,69.1,66.3,29.87,NNE,22,0.0,-999.0,91,-99.99,,,0.00,Acu-Link.com,2013-10-01 11:41:00,
2013-10-01 07:57:00,68.9,66.2,29.87,NNE,22,0.0,-999.0,91,-99.99,,,0.00,Acu-Link.com,2013-10-01 11:57:00,
2013-10-01 08:13:00,68.9,66.5,29.89,NNE,22,0.0,-999.0,92,-99.99,,,0.00,Acu-Link.com,2013-10-01 12:13:00,
2013-10-01 08:28:00,70.0,66.9,29.91,SSE,157,0.0,-999.0,90,-99.99,,,0.00,Acu-Link.com,2013-10-01 12:28:00,
2013-10-01 08:43:00,71.2,67.8,29.91,WNW,292,0.0,-999.0,89,-99.99,,,0.00,Acu-Link.com,2013-10-01 12:43:00,
2013-10-01 08:58:00,76.1,69.5,29.92,SE,135,0.0,-999.0,80,-99.99,,,0.00,Acu-Link.com,2013-10-01 12:58:00,
2013-10-01 09:14:00,75.0,69.1,29.92,West,270,0.0,-999.0,82,-99.99,,,0.00,Acu-Link.com,2013-10-01 13:14:00,
2013-10-01 09:29:00,76.3,69.3,29.93,ESE,112,0.0,-999.0,79,-99.99,,,0.00,Acu-Link.com,2013-10-01 13:29:00,
2013-10-01 09:44:00,76.5,69.1,29.93,SE,135,0.0,-999.0,78,-99.99,,,0.00,Acu-Link.com,2013-10-01 13:44:00,
2013-10-01 10:00:00,76.3,68.5,29.93,ESE,112,0.0,-999.0,77,-99.99,,,0.00,Acu-Link.com,2013-10-01 14:00:00,
2013-10-01 10:30:00,78.4,68.2,29.94,NE,45,0.0,-999.0,71,-99.99,,,0.00,Acu-Link.com,2013-10-01 14:30:00,
2013-10-01 10:46:00,78.4,68.2,29.94,NNE,22,0.0,-999.0,71,-99.99,,,0.00,Acu-Link.com,2013-10-01 14:46:00,
2013-10-01 11:01:00,80.6,69.0,29.93,South,180,0.0,-999.0,68,-99.99,,,0.00,Acu-Link.com,2013-10-01 15:01:00,
2013-10-01 11:16:00,80.1,68.5,29.92,SE,135,0.0,-999.0,68,-99.99,,,0.00,Acu-Link.com,2013-10-01 15:16:00,
2013-10-01 11:31:00,81.9,69.8,29.93,ESE,112,0.0,-999.0,67,-99.99,,,0.00,Acu-Link.com,2013-10-01 15:31:00,
2013-10-01 11:46:00,79.7,69.0,29.92,East,90,2.2,-999.0,70,-99.99,,,0.00,Acu-Link.com,2013-10-01 15:46:00,
2013-10-01 12:02:00,80.1,69.4,29.92,South,180,2.7,-999.0,70,-99.99,,,0.00,Acu-Link.com,2013-10-01 16:02:00,
2013-10-01 12:17:00,81.0,68.5,29.92,South,180,2.7,-999.0,66,-99.99,,,0.00,Acu-Link.com,2013-10-01 16:17:00,
2013-10-01 12:32:00,81.7,69.6,29.92,East,90,2.2,-999.0,67,-99.99,,,0.00,Acu-Link.com,2013-10-01 16:32:00,
2013-10-01 12:47:00,81.3,68.9,29.92,ENE,67,1.6,-999.0,66,-99.99,,,0.00,Acu-Link.com,2013-10-01 16:47:00,
2013-10-01 13:03:00,81.7,68.3,29.91,East,90,2.2,-999.0,64,-99.99,,,0.00,Acu-Link.com,2013-10-01 17:03:00,
2013-10-01 13:18:00,80.8,68.8,29.91,SSE,157,3.1,-999.0,67,-99.99,,,0.00,Acu-Link.com,2013-10-01 17:18:00,
2013-10-01 13:33:00,81.0,68.1,29.91,South,180,1.1,-999.0,65,-99.99,,,0.00,Acu-Link.com,2013-10-01 17:33:00,
2013-10-01 13:49:00,81.1,68.2,29.89,SSE,157,1.6,-999.0,65,-99.99,,,0.00,Acu-Link.com,2013-10-01 17:49:00,
2013-10-01 14:04:00,81.9,67.1,29.89,ENE,67,1.6,-999.0,61,-99.99,,,0.00,Acu-Link.com,2013-10-01 18:04:00,
2013-10-01 14:19:00,82.0,67.2,29.88,NE,45,1.6,-999.0,61,-99.99,,,0.00,Acu-Link.com,2013-10-01 18:19:00,
2013-10-01 14:35:00,82.8,67.9,29.88,NNE,22,0.0,-999.0,61,-99.99,,,0.00,Acu-Link.com,2013-10-01 18:35:00,
2013-10-01 14:50:00,81.7,68.3,29.88,ESE,112,2.2,-999.0,64,-99.99,,,0.00,Acu-Link.com,2013-10-01 18:50:00,
2013-10-01 15:05:00,81.0,68.5,29.87,ESE,112,1.6,-999.0,66,-99.99,,,0.00,Acu-Link.com,2013-10-01 19:05:00,
2013-10-01 15:20:00,82.6,68.7,29.87,ESE,112,1.6,-999.0,63,-99.99,,,0.00,Acu-Link.com,2013-10-01 19:20:00,
2013-10-01 15:36:00,83.7,70.2,29.87,South,180,0.0,-999.0,64,-99.99,,,0.00,Acu-Link.com,2013-10-01 19:36:00,
2013-10-01 15:51:00,81.9,68.9,29.87,ENE,67,1.6,-999.0,65,-99.99,,,0.00,Acu-Link.com,2013-10-01 19:51:00,
2013-10-01 16:06:00,82.9,68.6,29.87,East,90,0.0,-999.0,62,-99.99,,,0.00,Acu-Link.com,2013-10-01 20:06:00,
2013-10-01 16:22:00,83.8,68.4,29.86,SE,135,1.1,-999.0,60,-99.99,,,0.00,Acu-Link.com,2013-10-01 20:22:00,
2013-10-01 16:37:00,82.0,67.7,29.86,SSW,202,2.2,-999.0,62,-99.99,,,0.00,Acu-Link.com,2013-10-01 20:37:00,
2013-10-01 16:52:00,81.5,67.7,29.86,SE,135,3.1,-999.0,63,-99.99,,,0.00,Acu-Link.com,2013-10-01 20:52:00,
2013-10-01 17:07:00,80.1,67.7,29.87,East,90,1.1,-999.0,66,-99.99,,,0.00,Acu-Link.com,2013-10-01 21:07:00,
2013-10-01 17:23:00,79.3,67.4,29.86,ESE,112,1.6,-999.0,67,-99.99,,,0.00,Acu-Link.com,2013-10-01 21:23:00,
2013-10-01 17:38:00,78.6,66.3,29.87,ESE,112,1.1,-999.0,66,-99.99,,,0.00,Acu-Link.com,2013-10-01 21:38:00,
2013-10-01 17:53:00,78.1,66.6,29.87,South,180,1.6,-999.0,68,-99.99,,,0.00,Acu-Link.com,2013-10-01 21:53:00,
2013-10-01 18:08:00,77.4,66.4,29.87,South,180,2.7,-999.0,69,-99.99,,,0.00,Acu-Link.com,2013-10-01 22:08:00,
2013-10-01 18:23:00,76.8,66.7,29.87,SSE,157,2.7,-999.0,71,-99.99,,,0.00,Acu-Link.com,2013-10-01 22:23:00,
2013-10-01 18:39:00,76.1,66.8,29.87,South,180,0.0,-999.0,73,-99.99,,,0.00,Acu-Link.com,2013-10-01 22:39:00,
2013-10-01 18:54:00,75.4,66.5,29.87,SE,135,1.6,-999.0,74,-99.99,,,0.00,Acu-Link.com,2013-10-01 22:54:00,
2013-10-01 19:09:00,74.5,66.0,29.88,ESE,112,0.0,-999.0,75,-99.99,,,0.00,Acu-Link.com,2013-10-01 23:09:00,
2013-10-01 19:24:00,73.8,65.3,29.88,SSE,157,2.2,-999.0,75,-99.99,,,0.00,Acu-Link.com,2013-10-01 23:24:00,
2013-10-01 19:40:00,73.0,65.4,29.88,SE,135,0.0,-999.0,77,-99.99,,,0.00,Acu-Link.com,2013-10-01 23:40:00,
2013-10-01 19:55:00,72.1,65.3,29.88,SE,135,0.0,-999.0,79,-99.99,,,0.00,Acu-Link.com,2013-10-01 23:55:00,
2013-10-01 20:10:00,71.6,65.5,29.89,South,180,0.0,-999.0,81,-99.99,,,0.00,Acu-Link.com,2013-10-02 00:10:00,
2013-10-01 20:25:00,70.9,65.5,29.90,SE,135,0.0,-999.0,83,-99.99,,,0.00,Acu-Link.com,2013-10-02 00:25:00,
2013-10-01 20:40:00,70.3,65.3,29.90,ESE,112,0.0,-999.0,84,-99.99,,,0.00,Acu-Link.com,2013-10-02 00:40:00,
2013-10-01 20:56:00,69.4,65.1,29.90,ESE,112,0.0,-999.0,86,-99.99,,,0.00,Acu-Link.com,2013-10-02 00:56:00,
2013-10-01 21:11:00,69.1,64.7,29.91,SSE,157,0.0,-999.0,86,-99.99,,,0.00,Acu-Link.com,2013-10-02 01:11:00,
2013-10-01 21:26:00,68.7,64.7,29.92,East,90,0.0,-999.0,87,-99.99,,,0.00,Acu-Link.com,2013-10-02 01:26:00,
2013-10-01 21:42:00,68.0,64.3,29.92,SE,135,0.0,-999.0,88,-99.99,,,0.00,Acu-Link.com,2013-10-02 01:42:00,
2013-10-01 21:57:00,67.6,64.3,29.93,East,90,0.0,-999.0,89,-99.99,,,0.00,Acu-Link.com,2013-10-02 01:57:00,
2013-10-01 22:12:00,67.3,64.2,29.94,ESE,112,0.0,-999.0,90,-99.99,,,0.00,Acu-Link.com,2013-10-02 02:12:00,
2013-10-01 22:28:00,66.9,63.9,29.93,ESE,112,0.0,-999.0,90,-99.99,,,0.00,Acu-Link.com,2013-10-02 02:28:00,
2013-10-01 22:43:00,66.6,63.5,29.93,East,90,0.0,-999.0,90,-99.99,,,0.00,Acu-Link.com,2013-10-02 02:43:00,
2013-10-01 22:58:00,66.4,63.7,29.93,SE,135,0.0,-999.0,91,-99.99,,,0.00,Acu-Link.com,2013-10-02 02:58:00,
2013-10-01 23:13:00,66.2,63.5,29.93,SSE,157,0.0,-999.0,91,-99.99,,,0.00,Acu-Link.com,2013-10-02 03:13:00,
2013-10-01 23:29:00,66.0,63.6,29.93,ESE,112,0.0,-999.0,92,-99.99,,,0.00,Acu-Link.com,2013-10-02 03:29:00,
2013-10-01 23:44:00,66.0,63.6,29.93,ESE,112,0.0,-999.0,92,-99.99,,,0.00,Acu-Link.com,2013-10-02 03:44:00,
2013-10-01 23:59:00,66.0,63.9,29.94,ESE,112,0.0,-999.0,93,-99.99,,,0.00,Acu-Link.com,2013-10-02 03:59:00,